EDT,Max TemperatureF,Mean TemperatureF,Min TemperatureF,Max Dew PointF,MeanDew PointF,Min DewpointF,Max Humidity, Mean Humidity, Min Humidity, Max Sea Level PressureIn, Mean Sea Level PressureIn, Min Sea Level PressureIn, Max VisibilityMiles, Mean VisibilityMiles, Min VisibilityMiles, Max Wind SpeedMPH, Mean Wind SpeedMPH, Max Gust SpeedMPH,PrecipitationIn, CloudCover, Events, WindDirDegrees
2013-3-1,51,44,37,36,34,32,87,65,50,30.09,30.04,29.99,10,10,10,10,2,20,0.00,0,,309
2013-3-2,44,40,35,34,32,30,87,73,61,30.11,30.07,30.04,10,10,10,12,4,17,0.00,6,,301
2013-3-3,48,40,33,32,31,27,93,70,46,30.17,30.11,30.07,10,10,10,13,4,18,0.00,4,,304
2013-3-4,62,47,32,43,34,30,100,65,34,30.23,30.16,30.09,10,10,10,7,1,,0.00,0,,195
2013-3-5,77,62,46,63,52,37,94,75,50,30.10,30.01,29.86,10,10,10,22,5,36,0.00,5,Rain,250
2013-3-6,55,48,41,37,33,30,87,63,41,30.22,30.14,30.06,10,10,10,16,5,24,0.00,0,,309
2013-3-7,64,48,32,43,35,32,100,72,32,30.31,30.25,30.19,10,10,7,9,1,,0.00,0,,357
2013-3-8,69,51,33,45,38,34,100,68,28,30.30,30.25,30.20,10,10,4,8,1,,0.00,0,,37
2013-3-9,71,55,39,46,40,36,100,65,27,30.30,30.23,30.17,10,9,3,10,2,,0.00,0,,107
2013-3-10,77,65,53,54,49,43,94,59,36,30.18,30.13,30.07,10,10,10,13,4,21,0.00,0,,157
2013-3-11,73,62,51,63,57,50,100,85,57,30.07,29.94,29.81,10,8,2,14,3,25,0.00,5,Rain,170
2013-3-12,64,53,42,54,42,37,100,70,37,30.13,30.00,29.87,10,10,2,10,6,20,0.00,2,Rain,329
2013-3-13,66,54,41,41,35,28,100,52,28,30.27,30.21,30.13,10,10,10,14,3,21,0.00,0,,318
2013-3-14,60,48,37,41,31,27,87,52,27,30.42,30.32,30.26,10,9,4,10,2,17,0.00,0,,350
2013-3-15,75,56,37,48,41,34,100,61,31,30.31,30.22,30.10,10,10,7,14,3,20,0.00,0,,240
2013-3-16,78,61,44,54,50,45,100,69,39,30.15,30.08,29.99,10,10,5,16,5,25,0.00,0,,239
2013-3-17,71,58,46,64,57,46,100,92,64,30.08,30.03,29.98,10,9,0,10,1,16,0.00,5,Fog-Rain,186
2013-3-18,80,70,59,68,63,57,100,87,61,30.01,29.94,29.82,10,10,4,17,4,26,0.00,7,Rain-Thunderstorm,197
2013-3-19,77,65,53,59,54,37,100,78,38,30.06,29.99,29.85,10,10,5,10,3,25,0.00,3,Rain-Thunderstorm,2
2013-3-20,68,56,44,45,37,34,87,49,30,30.12,30.02,29.95,10,10,10,9,2,,0.00,2,,22
2013-3-21,64,50,37,41,32,27,93,51,26,30.03,29.97,29.91,10,10,10,13,2,22,0.00,0,,309
2013-3-22,59,52,46,46,37,28,82,57,38,30.06,30.00,29.94,10,10,10,10,2,,0.00,6,Rain,78
2013-3-23,60,56,51,55,51,46,100,88,72,29.98,29.87,29.73,10,9,2,12,3,17,0.00,8,Rain-Thunderstorm,82
2013-3-24,80,66,53,64,57,41,100,78,48,29.79,29.61,29.52,10,8,1,18,6,32,0.00,4,Rain-Thunderstorm,280
2013-3-25,59,50,41,43,32,27,76,53,29,30.15,29.97,29.79,10,10,10,18,8,28,0.00,0,,300
2013-3-26,53,44,35,32,30,28,81,59,41,30.33,30.23,30.16,10,10,10,15,5,23,0.00,1,,322
2013-3-27,60,46,32,39,33,28,100,66,34,30.40,30.33,30.27,10,10,10,10,1,17,0.00,0,,341
2013-3-28,68,52,35,45,37,34,100,64,30,30.37,30.31,30.24,10,10,10,10,1,,0.00,0,,2
2013-3-29,73,55,37,46,41,37,100,61,29,30.35,30.28,30.20,10,10,10,10,2,,0.00,0,,212
2013-3-30,77,60,42,57,50,43,100,69,41,30.25,30.17,30.08,10,10,0,12,3,17,0.00,2,Fog,214
2013-3-31,80,70,59,64,59,46,100,74,54,30.10,30.02,29.92,10,10,10,12,3,17,0.00,4,Rain-Thunderstorm,219